AO-07 1 07530U 74089B 17116.91490483 -.00000054 00000-0 -64114-4 0 9998 2 07530 101.6257 086.6201 0012479 062.4541 318.5708 12.53626619942207 UO-11 1 14781U 84021B 17116.75007559 .00000209 00000-0 32020-4 0 9992 2 14781 097.7031 164.3438 0008827 018.6299 341.5236 14.82885499782727 LO-19 1 20442U 90005G 17116.88849308 .00000028 00000-0 26265-4 0 9995 2 20442 098.5729 053.9321 0010793 303.0004 057.0142 14.32857105424215 HUBBLE 1 20580U 90037B 17116.88999322 .00000946 00000-0 47557-4 0 9991 2 20580 028.4706 346.4763 0002640 345.1535 130.8313 15.08747486282444 MET-2/21 1 22782U 93055A 17116.90105485 .00000068 00000-0 47646-4 0 9996 2 22782 082.5501 064.2829 0021566 212.0301 207.2226 13.83799602194333 AO-27 1 22825U 93061C 17116.90471652 .00000012 00000-0 22477-4 0 9997 2 22825 098.8073 081.8702 0009364 117.5919 242.6215 14.29993704230079 IO-26 1 22826U 93061D 17116.80763434 .00000023 00000-0 26331-4 0 9994 2 22826 098.8016 081.8601 0009978 109.4555 250.7705 14.30322090230230 FO-29 1 24278U 96046B 17116.92101536 -.00000013 00000-0 19652-4 0 9993 2 24278 098.5714 006.9854 0351311 110.1698 253.7590 13.53075658021693 NOAA-15 1 25338U 98030A 17116.91630680 .00000050 00000-0 39747-4 0 9999 2 25338 098.7838 127.7207 0010495 002.2332 357.8892 14.25788500985434 GO-32 1 25397U 98043D 17116.88813543 -.00000004 00000-0 17111-4 0 9996 2 25397 098.6062 060.3175 0002079 120.0692 240.0694 14.23620345976275 ISS 1 25544U 98067A 17116.87246948 .00004840 00000-0 80115-4 0 9999 2 25544 051.6427 294.0704 0007239 096.8444 050.4048 15.54197325053774 NO-44 1 26931U 01043C 17116.92742893 .00000015 00000-0 37455-4 0 9993 2 26931 067.0515 223.4516 0007876 273.0807 086.9393 14.30457125812949 SO-50 1 27607U 02058C 17116.89299706 .00000187 00000-0 47717-4 0 9999 2 27607 064.5550 282.3048 0031959 122.2945 238.1260 14.75314680771419 CO-55 1 27844U 03031E 17116.50030656 .00000096 00000-0 62900-4 0 9999 2 27844 098.6910 126.2567 0010654 132.3767 227.8315 14.22031279716939 CO-57 1 27848U 03031J 17116.48608245 .00000077 00000-0 55156-4 0 9999 2 27848 098.7003 126.4793 0010444 140.9498 219.2435 14.21646611716853 RS-22 1 27939U 03042A 17116.94690021 .00000208 00000-0 45879-4 0 9993 2 27939 097.9312 263.3625 0013679 034.4584 079.5554 14.66553062725663 NOAA-18 1 28654U 05018A 17116.90533524 .00000042 00000-0 48118-4 0 9998 2 28654 099.1862 137.8572 0013808 211.8050 148.2288 14.12334366614920 CO-58 1 28895U 05043F 17116.41316761 .00000305 00000-0 67574-4 0 9990 2 28895 097.8590 281.1086 0015680 310.5947 049.3890 14.63378836612918 Falconsat-3 1 30776U 07006E 17116.22949780 .00005605 00000-0 17855-3 0 9998 2 30776 035.4366 036.1692 0004272 231.1718 128.8626 15.31977712560284 CO-65 1 32785U 08021C 17116.45896955 .00000573 00000-0 68289-4 0 9995 2 32785 097.5709 143.0828 0012636 346.9026 013.1861 14.87855772487135 AAUSAT2 1 32788U 08021F 17116.65666135 .00001384 00000-0 13549-3 0 9994 2 32788 097.5641 154.5709 0010559 307.8062 052.2201 14.93805540487986 DO-64 1 32789U 08021G 17116.88919034 .00002748 00000-0 19929-3 0 9992 2 32789 097.5644 176.1943 0010820 275.8549 084.1444 15.04707822489055 CO-66 1 32791U 08021J 17116.13808882 .00000763 00000-0 84224-4 0 9997 2 32791 097.5683 146.9788 0012565 332.6509 027.4046 14.90174209487393 RS-30 1 32953U 08025A 17116.85356041 .00000007 00000-0 -23798-4 0 9996 2 32953 082.5004 271.5720 0019231 040.3408 319.9094 12.43076149405047 PRISM 1 33493U 09002B 17116.84952161 .00001080 00000-0 10286-3 0 9994 2 33493 098.1762 357.1003 0013920 252.9783 106.9907 14.95595730448104 NOAA-19 1 33591U 09005A 17116.90156013 .00000123 00000-0 92020-4 0 9999 2 33591 099.0879 083.0123 0014946 058.6504 301.6127 14.12174214423156 TISAT-1 1 36799U 10035E 17116.85007665 .00000941 00000-0 10267-3 0 9999 2 36799 098.0542 238.5612 0013646 132.0887 228.1493 14.90337176367938 JUGNU 1 37839U 11058B 17116.93178413 .00000338 00000-0 38721-4 0 9996 2 37839 019.9620 041.2595 0018766 338.7839 090.4108 14.12580267286334 SRMSAT 1 37841U 11058D 17116.29965955 .00000321 00000-0 31454-4 0 9991 2 37841 019.9717 085.7070 0011712 230.4835 274.5425 14.10571899285855 AO-71 1 37854U 11061E 17116.82659380 .00002195 00000-0 12517-3 0 9999 2 37854 101.7092 324.3220 0167897 226.8785 131.8281 15.03892198298763 HRBE 1 37855U 11061F 17116.86750538 .00002378 00000-0 13235-3 0 9992 2 37855 101.7206 322.2198 0181284 233.0228 125.4269 15.02842390298617 ALMASAT-1 1 38078U 12006B 17116.92649899 .00027344 37453-5 31533-3 0 9992 2 38078 069.4381 270.0854 0316462 005.8067 354.6603 15.20203706276999 HORYU-2 1 38340U 12025D 17116.94930807 .00000481 00000-0 79005-4 0 9992 2 38340 098.3767 119.0673 0013043 094.4967 265.7731 14.75307759255323 RS-40 1 38735U 12041C 17116.92060708 .00000037 00000-0 19721-3 0 9995 2 38735 082.4785 356.1590 0017175 137.1921 223.0499 12.42573916215306 BEESAT-3 1 39134U 13015E 17116.88644186 .00003034 00000-0 15785-3 0 9990 2 39134 064.8705 032.0236 0033534 282.0848 077.6522 15.17633745221318 BEESAT-2 1 39136U 13015G 17116.88605029 .00002433 00000-0 13883-3 0 9994 2 39136 064.8731 042.0072 0030401 290.8700 068.9170 15.14950045221114 ZACUBE-1 1 39417U 13066B 17116.66640946 .00000569 00000-0 78209-4 0 9997 2 39417 097.6352 161.3920 0060931 078.9496 281.8562 14.80677152185155 TRITON-1 1 39427U 13066M 17116.91370401 .00000407 00000-0 72944-4 0 9993 2 39427 097.6409 135.7011 0115210 152.3538 208.3859 14.67429038183334 GOMX-1 1 39430U 13066Q 17116.93647305 .00000306 00000-0 64880-4 0 9997 2 39430 097.6650 119.8835 0151327 204.3801 155.0192 14.58839112182271 LO-74 1 39440U 13066AA 17116.63549943 .00000538 00000-0 82012-4 0 9998 2 39440 097.6339 150.9479 0082378 107.4074 253.6165 14.75418120184492 AO-73 1 39444U 13066AE 17116.67140432 .00000705 00000-0 93854-4 0 9998 2 39444 097.6367 162.3847 0060084 075.9846 284.8037 14.81401709183393 SPROUT 1 39770U 14029E 17116.86025691 .00002023 00000-0 23663-3 0 9995 2 39770 097.8694 216.7440 0010440 129.7155 230.4980 14.86145839158519 DUCHIFAT-1 1 40021U 14033M 17116.78555995 .00001023 00000-0 11230-3 0 9993 2 40021 097.9210 029.8718 0014480 108.0807 252.1989 14.89828758154942 NANOSATCBR1 1 40024U 14033Q 17116.69731478 .00000916 00000-0 10281-3 0 9993 2 40024 097.9171 028.7510 0013740 109.0653 251.2054 14.89162527154361 EO-79 1 40025U 14033R 17116.78393265 .00000675 00000-0 78880-4 0 9994 2 40025 097.9154 027.9544 0013935 111.4613 248.8091 14.88376336154840 DTUSAT-2 1 40030U 14033W 17116.70892514 .00000677 00000-0 79722-4 0 9991 2 40030 097.9122 027.0451 0013433 106.4681 253.8013 14.88000623154282 EO-80 1 40032U 14033Y 17116.88338259 .00000654 00000-0 77363-4 0 9997 2 40032 097.9130 027.2260 0013384 106.2757 253.9932 14.87935590154291 ANTELSAT 1 40034U 14033AA 17116.74897049 .00000524 00000-0 85707-4 0 9998 2 40034 097.8662 002.2559 0060556 098.0374 262.7711 14.73663181152810 VELOX-1 1 40057U 14034E 17116.81480750 .00000805 00000-0 12152-3 0 9994 2 40057 098.1844 216.2678 0010141 216.4900 143.5614 14.77077613152176 DAURIA DX 1 1 40071U 14037C 17116.85156265 .00000367 00000-0 54803-4 0 9991 2 40071 098.3314 225.8953 0007486 211.4650 148.6116 14.80996348151376 UKUBE-1 1 40074U 14037F 17116.89609627 .00000841 00000-0 10942-3 0 9995 2 40074 098.3402 229.5283 0003924 201.6657 158.4395 14.83455950151577 HODOYOSHI-1 1 40299U 14070B 17116.85952813 .00001997 00000-0 89987-4 0 9994 2 40299 097.4038 200.3778 0011612 273.7867 223.8265 15.22163073137138 CHUBUSAT-1 1 40300U 14070C 17116.90302193 .00002147 00000-0 10027-3 0 9999 2 40300 097.3971 197.7345 0018957 282.6826 184.5037 15.20753931136997 QSAT-EOS 1 40301U 14070D 17116.83050284 .00004604 00000-0 19721-3 0 9993 2 40301 097.3910 197.5825 0026248 278.9982 220.3908 15.22970781137011 FIREBIRD FU3 1 40377U 15003B 17116.76572423 .00007044 00000-0 30109-3 0 9993 2 40377 099.1197 290.4877 0137294 172.3396 187.9974 15.15065040123225 FIREBIRD FU4 1 40378U 15003C 17116.75869314 .00006903 00000-0 29475-3 0 9998 2 40378 099.1201 290.5128 0137498 172.2679 188.0714 15.15085551123224 GRIFEX 1 40379U 15003D 17116.92589864 .00004009 00000-0 18289-3 0 9993 2 40379 099.1214 288.7091 0142991 178.5945 181.5712 15.12714473123120 NO-84 1 40654U 15025D 17117.38825992 .00010986 00000-0 20476-3 0 04312 2 40654 054.9926 103.5094 0186541 137.3699 224.1886 15.32672162072107 NO-83 1 40655U 15025E 17117.33291467 .00021228 00000-0 32488-3 0 04791 2 40655 054.9813 082.6120 0155538 148.6270 212.3691 15.41704844072377 DEORBITSAIL 1 40719U 15032E 17116.73653273 .00000843 00000-0 12974-3 0 9995 2 40719 097.9860 011.1233 0015638 313.2933 046.6972 14.76000995096730 NUDT-PHONESAT 1 40900U 15049B 17116.93010218 .00004402 00000-0 21226-3 0 9998 2 40900 097.4435 125.5885 0015544 049.9331 310.3264 15.19123378088677 XW-2A 1 40903U 15049E 17116.93810947 .00004124 00000-0 11036-3 0 9997 2 40903 097.4249 142.0074 0016876 090.3906 269.9273 15.38486155089760 XW-2C 1 40906U 15049H 17116.90371211 .00001778 00000-0 10003-3 0 9998 2 40906 097.4556 123.4219 0016344 037.6069 322.6303 15.14437107088477 XW-2D 1 40907U 15049J 17116.89048682 .00001910 00000-0 10693-3 0 9993 2 40907 097.4525 123.1845 0015671 036.1852 324.0437 15.14533427088478 LILACSAT-2 1 40908U 15049K 17116.90291330 .00001068 00000-0 63882-4 0 9999 2 40908 097.4627 123.0200 0017114 033.4260 326.8048 15.13058308088414 XW-2F 1 40910U 15049M 17116.92172082 .00002451 00000-0 13301-3 0 9993 2 40910 097.4541 123.8180 0016446 034.1030 326.1255 15.15368144088515 XW-2B 1 40911U 15049N 17116.89534436 .00001861 00000-0 10439-3 0 9998 2 40911 097.4568 123.5391 0015577 036.5216 323.7075 15.14498109088373 DCBB 1 40912U 15049P 17116.85862448 .00003670 00000-0 18610-3 0 9991 2 40912 097.4511 125.4470 0016728 026.7944 094.6721 15.17452408088501 TW-1C 1 40926U 15051B 17116.88451652 .00016758 00000-0 39397-3 0 9999 2 40926 097.2352 156.8552 0012095 005.3292 119.5559 15.41985790089013 TW-1A 1 40928U 15051D 17116.81419037 .00008488 00000-0 24565-3 0 9997 2 40928 097.2322 153.5499 0013781 031.0325 055.6549 15.35744274088811 IO-86 1 40931U 15052B 17115.35528199 .00000732 00000-0 13002-4 0 9999 2 40931 006.0024 249.4453 0012486 218.5633 141.2803 14.76523883085145 GomX-3 1 40949U 98067HA 16292.18357804 .08527750 12374-4 77882-3 0 9992 2 40949 51.6055 106.7696 0006699 286.1344 73.8944 16.38002265 59645 LQSat 1 40958U 15057A 17116.89187875 .00000130 00000-0 27990-4 0 9998 2 40958 097.9799 193.0988 0017017 228.1660 131.8084 14.72958718083566 AO-85 1 40967U 15058D 17117.19730730 .00000776 00000-0 10881-3 0 04639 2 40967 064.7791 013.5407 0172377 096.8920 265.1837 14.75390162069592 ATHENOXAT-1 1 41168U 15077C 17116.39733447 .00004387 00000-0 21289-3 0 9993 2 41168 014.9950 187.7435 0012832 018.5148 056.3899 15.11423834075192 ChubuSat-2 1 41338U 16012B 17116.23829576 .00000805 00000-0 56786-4 0 9996 2 41338 031.0033 082.1808 0014021 265.0624 094.8410 14.99708552065187 ChubuSat-3 1 41339U 16012C 17116.24021155 .00000812 00000-0 57031-4 0 9997 2 41339 031.0104 081.3976 0013957 271.4072 088.4984 14.99916856065160 Horyu-4 1 41340U 16012D 17116.23601459 .00001290 00000-0 93029-4 0 9997 2 41340 031.0053 079.2585 0014303 279.1107 080.7910 15.00541083065205 OUFTI-1 1 41458U 16025C 17116.98500928 .00006082 00000-0 32684-3 0 9995 2 41458 098.1883 151.6197 0175731 100.6493 261.4574 15.02934703054897 e-st@r-II 1 41459U 16025D 17116.93418252 .00004459 00000-0 24023-3 0 9993 2 41459 098.1912 151.5354 0177474 100.9709 261.1536 15.02799229054879 AAUSAT4 1 41460U 16025E 17116.89405762 .00007544 00000-0 40453-3 0 9995 2 41460 098.1854 151.5648 0170139 099.9435 262.0980 15.03615542054886 MinXSS 1 41474U 98067HU 17116.85758913 .00721317 26710-3 10295-2 0 9991 2 41474 051.6488 255.9032 0009048 314.2477 045.7791 16.04855092054225 CADRE 1 41475U 98067HV 17003.74787607 .12518598 12537-4 55989-3 0 9998 2 41475 51.6110 110.0165 0004040 312.3134 47.7551 16.43344525 36494 NODES 1 1 41477U 98067HX 17116.69855698 .00071096 00000-0 43515-3 0 9999 2 41477 051.6300 269.8087 0003869 268.8959 091.1598 15.76662213053935 NODES 2 1 41478U 98067HY 17116.85280213 .00069440 00000-0 43154-3 0 9992 2 41478 051.6327 269.3429 0003616 268.6137 091.4449 15.76326715053950 LO-87 1 41557U 16033B 17116.76786019 .00003233 00000-0 12504-3 0 9991 2 41557 097.4650 196.2862 0014373 182.2828 177.8348 15.26862833050588 NuSat2 1 41558U 16033C 17116.86216324 .00003156 00000-0 12262-3 0 9995 2 41558 097.4675 196.4255 0013895 180.4896 179.6331 15.26740049050594 Lapan A3 1 41603U 16040E 17116.94206407 .00000583 00000-0 30842-4 0 9990 2 41603 097.4662 179.5224 0011948 251.5765 230.2560 15.19319272046877 Swayam 1 41607U 16040J 17116.14620652 .00003568 00000-0 16582-3 0 9998 2 41607 097.4650 178.9307 0012821 256.3569 103.6239 15.20570542046696 Pratham 1 41783U 16059A 17116.85991802 .00000149 00000-0 38580-4 0 9994 2 41783 098.1717 178.7504 0032729 323.6279 036.2699 14.62826066031094 AlSat 1N 1 41789U 16059G 17116.82248469 .00000188 00000-0 45105-4 0 9995 2 41789 098.1716 179.1152 0027451 318.8035 041.1089 14.64033328031096 ScatSat 1 41790U 16059H 17116.78862383 .00000054 00000-0 24615-4 0 9994 2 41790 098.0706 168.9965 0010157 309.9531 050.0771 14.50104008030816 TY-1 1 41844U 16066D 17116.86210922 .00002834 00000-0 12703-3 0 9999 2 41844 097.4058 124.7957 0017938 061.5546 011.2417 15.21915460025531 CAS-2T 1 41845U 16066E 17116.89755504 -.00000068 00000-0 00000-0 0 9995 2 41845 098.7798 131.2966 0367746 040.6095 322.1949 14.37731447024127 Pegasus-1 1 41846U 16066F 17116.92485668 -.00000068 00000-0 00000-0 0 9991 2 41846 098.7809 131.1565 0370520 041.4540 321.4257 14.36956991024118 STARS-C 1 41895U 98067KR 17116.65766254 .00030866 00000-0 38929-3 0 9991 2 41895 051.6389 292.9540 0004780 130.0519 230.0893 15.59303183019946 Tancredo 1 1 41931U 98067KT 17116.89703758 .00063945 00000-0 68926-3 0 9992 2 41931 051.6381 290.7950 0005078 088.2467 271.9109 15.63055395015569 ITF-2 1 41932U 98067KU 17116.78448224 .00021296 00000-0 28553-3 0 9990 2 41932 051.6403 293.0554 0005848 081.3955 278.7700 15.57894558015525 AOBA-V3LOX3 1 41935U 98067KX 17116.71871358 .00023438 00000-0 31149-3 0 9999 2 41935 051.6401 293.3645 0005207 086.2034 273.9554 15.58069751015615 OSNSAT 1 41939U 98067KZ 17116.89201671 .00042459 00000-0 50356-3 0 9992 2 41939 051.6389 291.5154 0006306 085.7442 274.4271 15.60753270014910 EO-88 1 42017U 17008BX 17116.91993410 .00003577 00000-0 15611-3 0 9991 2 42017 097.4997 178.4680 0007807 051.9786 308.2154 15.22771814010689 /EX